Regional Weather Roundup
Issued by NWS

Home | Current Version | Previous Version | Graphics & Text | Print | Product List | Glossary On
Versions: 1 2 3 4 5 6 7 8 9 10 11 12 13 14 15 16 17 18 19 20 21 22 23 24 25 26 27 28 29 30 31 32 33 34 35 36 37 38 39 40 41 42 43 44 45 46 47 48 49 50
000
ASUS43 KLSX 282307
RWRMO

WEATHER SUMMARY FOR MISSOURI
NATIONAL WEATHER SERVICE SPRINGFIELD MO
600 PM CDT SAT MAR 28 2015

NOTE: "FAIR" INDICATES FEW OR NO CLOUDS BELOW 12,000 FEET WITH NO
       SIGNIFICANT WEATHER AND/OR OBSTRUCTIONS TO VISIBILITY.
       CURRENT SKY AND/OR WEATHER CONDITIONS ARE NOT AVAILABLE FOR
       CHILLICOTHE AND FARMINGTON.

MOZ001>031-035>038-043-044-053-054-290000-
...NORTHERN AND WESTERN MISSOURI...

CITY           SKY/WX    TMP DP  RH WIND       PRES   REMARKS
KANSAS CTY INT SUNNY     52  31  44 SE10      30.11S
KANSAS C DTWN  SUNNY     53  29  39 SE13      30.12R
LEE`S SUMMIT   SUNNY     51  30  44 SE9       30.13S
ST JOSEPH      SUNNY     52  31  44 SE15G23   30.11F
CHILLICOTHE      N/A     49  31  49 SE10      30.17S
KIRKSVILLE     SUNNY     46  24  42 SE15      30.19F

$$
MOZ066>068-077>081-088>096-101>105-290000-
...SOUTHWEST MISSOURI...

CITY           SKY/WX    TMP DP  RH WIND       PRES   REMARKS
SPRINGFIELD    MOSUNNY   46  32  58 SE16      30.14S
JOPLIN         SUNNY     57  38  48 E12       30.08R

$$
MOZ032>034-039>042-045>050-055>058-069>072-290000-
...CENTRAL MISSOURI...

CITY           SKY/WX    TMP DP  RH WIND       PRES   REMARKS
COLUMBIA       SUNNY     48  27  44 SE8       30.19S
JEFFERSON CITY MOSUNNY   48  27  44 E10       30.20S
ROLLA          MOSUNNY   46  27  47 S9        30.18S
SEDALIA        MOSUNNY   51  31  46 SE12      30.17R
WHITEMAN AFB   SUNNY     51  31  46 SE8       30.13F
WARRENSBURG    SUNNY     52  30  43 SE13      30.15S
OSAGE BEACH    MOSUNNY   46  28  49 SE7       30.19R

$$
MOZ051-052-059>065-290000-
...EAST CENTRAL MISSOURI...

CITY           SKY/WX    TMP DP  RH WIND       PRES   REMARKS
ST LOUIS INTL  SUNNY     46  17  31 E10G18    30.26S
SPIRIT OF STL  SUNNY     46  18  32 E9        30.24S
ST CHARLES     SUNNY     44  21  40 SE9       30.26S

$$
MOZ072>076-082>087-097>100-106>115-290000-
...SOUTH CENTRAL AND SOUTHEAST MISSOURI...

CITY           SKY/WX    TMP DP  RH WIND       PRES   REMARKS
CAPE GIRARDEAU SUNNY     46  17  31 VRB3      30.27R
FARMINGTON     SUNNY     46  21  36 E6        30.25S
POPLAR BLUFF   PTSUNNY   46  28  49 S7        30.26R
WEST PLAINS    CLOUDY    37  31  78 SE7       30.23S

$$


USA.gov is the U.S. government's official web portal to all federal, state and local government web resources and services.